Location: Kuffner-Sternwarte
(48.2130°N, 16.2960°E)
Time: 12:38:28
(UTC+02:00)

COROT - Pass Details

Date: 16 May 2018
Orbit: 601 x 888 km, 90.0° (Epoch: 24 September)

Event Time Altitude Azimuth Distance (km) Brightness Sun altitude
Rises 22:00:51 0° 4° (N) 2,949 9.8 -12.6°
Reaches altitude 10° 22:03:02 10° 7° (N) 2,066 8.9 -12.8°
Maximum altitude 22:07:33 65° 90° (E) 753 5.8 -13.3°
Enters shadow 22:11:20 17° 170° (S) 1,791 7.4 -13.7°
